Flag for Costa Rica Weather past 2 weeks in Alajuela, Costa Rica

Now
81 °F

Passing clouds.


Feels Like: 81 °F
Forecast: N/A
Wind: 15 mph from East

Location: Juan Santamaria

Current Time: Feb 28, 2015 at 2:57:48 PM

Latest Report: Feb 28, 2015 at 2:00 PM


Visibility: N/A

Pressure: 30.01 "Hg

Humidity: 42%

Dew point: 55 °F

Location of AlajuelaLocation

Historic Weather in Alajuela — Graph

°F

Alajuela temperature yesterday

Maximum temperature yesterday: 84 °F (at 11:00 AM)
Minimum temperature yesterday: 66 °F (at 5:00 AM)
Average temperature yesterday: 75 °F

Past Weeks' High & Low Weather Summary

 TemperatureHumidityPressure
High91 °F (Feb 15, 8:00 AM)83% (Feb 18, 6:00 AM)30.11 "Hg (Feb 18, 6:00 AM)
Low63 °F (Feb 18, 3:00 AM)20% (Feb 19, 1:00 PM)29.90 "Hg (Feb 26, 3:00 PM)
Average74 °F57%30.01 "Hg
* Reported Feb 13 2:00 PM — Feb 28 2:00 PM, Alajuela, Weather by CustomWeather, © 2015

Note: Actual official high and low records may vary slightly from our data, if they occured in-between our weather recording intervals... More about our weather records

Advertising

Alajuela weather history for previous 24 hours

 ConditionsComfort  
Time TempWeatherWind HumidityBarometerVisibility
2:00 PM
Sat, Feb 28
81 °FPassing clouds.15 mph42%30.01 "HgN/A
1:00 PM81 °FPassing clouds.16 mph39%30.03 "HgN/A
12:00 PM81 °FScattered clouds.16 mph37%30.04 "HgN/A
11:00 AM79 °FScattered clouds.17 mph45%30.01 "HgN/A
10:00 AM79 °FWarm.N/A48%30.08 "HgN/A
9:00 AM77 °FScattered clouds.21 mph51%30.07 "HgN/A
8:00 AM72 °FScattered clouds.16 mph65%30.06 "HgN/A
7:00 AM72 °FScattered clouds.12 mph69%30.04 "HgN/A
6:00 AM70 °FPassing clouds.12 mph73%30.02 "HgN/A
5:00 AM70 °FClear.14 mph73%30.00 "Hg10 mi
4:00 AM70 °FClear.14 mph69%29.98 "Hg10 mi
3:00 AM70 °FClear.12 mph69%29.97 "Hg10 mi
2:00 AM70 °FClear.12 mph69%29.98 "Hg10 mi
1:00 AM70 °FClear.10 mph73%29.99 "Hg10 mi
12:00 AM70 °FClear.13 mph73%30.00 "Hg10 mi
11:00 PM
Fri, Feb 27
70 °FClear.12 mph73%30.01 "Hg10 mi
10:00 PM70 °FClear.12 mph73%30.01 "Hg10 mi
9:00 PM70 °FClear.12 mph73%30.01 "Hg10 mi
8:00 PM72 °FPassing clouds.14 mph69%29.99 "HgN/A
7:00 PM72 °FPassing clouds.12 mph69%29.97 "HgN/A
6:00 PM73 °FPassing clouds.13 mph65%29.94 "HgN/A
5:00 PM79 °FPassing clouds.14 mph51%29.93 "HgN/A
4:00 PM82 °FScattered clouds.12 mph42%29.92 "HgN/A
3:00 PM84 °FPassing clouds.14 mph37%29.92 "HgN/A
2:00 PM84 °FPassing clouds.15 mph37%29.93 "HgN/A
Weather by CustomWeather, © 2015

See weather overviewHow to use our weather pages